Preview of NWS' New Version of Forecast
This preview is not operational and should not be used for support decisions.

Regional Weather Roundup (RWR)

Issued by National Weather Service (NWS)

                            
000
ASUS43 KTOP 220559
RWRKS 

WEATHER ROUNDUP FOR KANSAS
NATIONAL WEATHER SERVICE GOODLAND KS
100 AM CDT THU AUG 22 2019

NOTE:  "FAIR" INDICATES FEW OR NO CLOUDS BELOW 12,000 FEET WITH NO
SIGNIFICANT WEATHER AND/OR OBSTRUCTIONS TO VISIBILITY.

KSZ001>006-013>018-027>032-041>047-220700-
NORTHWEST KANSAS
  
CITY           SKY/WX    TMP DP  RH WIND       PRES   REMARKS
GOODLAND       CLOUDY    70  67  90 SE13      30.12S                  
6HR MIN TEMP:  70; 6HR MAX TEMP:  81;                                

HAYS           MOCLDY    69  69 100 NE9       29.81F                  
HILL CITY      CLOUDY    71  68  90 E10       30.06F                  
6HR MIN TEMP:  70; 6HR MAX TEMP:  80;                                

RUSSELL        PTCLDY    70  68  93 NE7       30.01F                  
6HR MIN TEMP:  70; 6HR MAX TEMP:  77;                                

$$

KSZ061>065-074>080-084>089-220700-
SOUTHWEST KANSAS
  
CITY           SKY/WX    TMP DP  RH WIND       PRES   REMARKS
DODGE CITY     CLEAR     70  68  93 N5        30.03F                  
6HR MIN TEMP:  70; 6HR MAX TEMP:  88;                                

GARDEN CITY    MOCLDY    70  67  90 E6        30.07F                  
6HR MIN TEMP:  70; 6HR MAX TEMP:  87;                                

GREAT BEND     MOCLDY    70  69  97 NE8       30.01S                  
LIBERAL        LGT RAIN  69  61  75 SE12      30.03F                  
$$

KSZ066>073-081>083-090>101-220700-
SOUTHEAST KANSAS
  
CITY           SKY/WX    TMP DP  RH WIND       PRES   REMARKS
CHANUTE        TSTM      72  69  90 SE14      29.96F                  
6HR MIN TEMP:  72; 6HR MAX TEMP:  89; 6HR PCP:  0.06;                

COFFEYVILLE    MOCLDY    71  66  84 NE16      29.96F THUNDER          
6HR MIN TEMP:  69; 6HR MAX TEMP:  88; 6HR PCP:  0.40;                

HUTCHINSON     PTCLDY    71  65  81 NE6       29.98F                  
6HR MIN TEMP:  70; 6HR MAX TEMP:  81; 6HR PCP: TRACE;                

MEDICINE LODGE   N/A     75  68  78 E9        29.96F                  
NEWTON         MOCLDY    69  67  93 NE7       30.00R                  
PARSONS        TSTM      69  68  96 SE12G21   30.00F FOG              
6HR MIN TEMP:  69; 6HR MAX TEMP:  87; 6HR PCP:  0.18;                

WICHITA INTL   CLOUDY    74  65  73 SE5       29.95F THUNDER          
6HR MIN TEMP:  68; 6HR MAX TEMP:  90; 6HR PCP:  2.76;                

WICHITA JABRA  MOCLDY    69  67  93 NE8       29.97R                  
6HR MIN TEMP:  67; 6HR MAX TEMP:  84; 6HR PCP:  1.06;                

WICHITA MCCONL CLOUDY    72  65  76 SE3       29.97S                  
WINFIELD       PTCLDY    70  66  87 SE10      29.95F                  
6HR MIN TEMP:  69; 6HR MAX TEMP:  90; 6HR PCP:  0.04;                

$$

KSZ007>012-019>026-033>040-048>060-102>105-220700-
NORTHEAST KANSAS
  
CITY           SKY/WX    TMP DP  RH WIND       PRES   REMARKS
CONCORDIA      CLOUDY    71  69  93 NE7       30.03S                  
6HR MIN TEMP:  70; 6HR MAX TEMP:  79;                                

EMPORIA        MOCLDY    71  71 100 CALM      29.98F                  
6HR MIN TEMP:  71; 6HR MAX TEMP:  77; 6HR PCP:  0.04;                

LAWRENCE       MOCLDY    75  70  84 VRB6G17   30.00R                  
6HR MIN TEMP:  74; 6HR MAX TEMP:  78;                                

MANHATTAN      CLOUDY    73  69  87 E6        30.01R                  
6HR MIN TEMP:  72; 6HR MAX TEMP:  76;                                

OLATHE IND     HVY RAIN  74  71  91 E10G17    30.00F                  
6HR MIN TEMP:  73; 6HR MAX TEMP:  78; 6HR PCP:  0.04;                

OLATHE EXE     LGT RAIN  73  71  93 E12       30.00S                  
6HR MIN TEMP:  73; 6HR MAX TEMP:  77; 6HR PCP:  0.02;                

SALINA         PTCLDY    72  69  90 NE7       30.01S                  
6HR MIN TEMP:  72; 6HR MAX TEMP:  76;                                

TOPEKA BILLARD CLOUDY    73  69  87 SE7       30.00R                  
6HR MIN TEMP:  73; 6HR MAX TEMP:  76; 6HR PCP: TRACE;                

TOPEKA FORBES  LGT RAIN  74  70  87 E6        30.01R                  
6HR MIN TEMP:  74; 6HR MAX TEMP:  77; 6HR PCP:  0.17;                

$$